New Roads False River Regiona, LA

1:51 AM CDT on September 15, 2019 (GMT -0500)
False River

Weather History for KHZR - May, 2019

Change the Weather History Date:

Wednesday, May 8, 2019

  Actual Average (WUND) Record (WUND)
Temperature  
Mean Temperature 74 °F -  
Max Temperature 80 °F - - (-1)
Min Temperature 69 °F - - (-1)
Cooling Degree Days 10    
Growing Degree Days 24 (Base 50)    
Moisture  
Dew Point 69 °F    
Average Humidity 86    
Maximum Humidity 100    
Minimum Humidity 8    
Precipitation  
Precipitation 0.09 in - - ()
Sea Level Pressure  
Sea Level Pressure 29.89 in    
Wind  
Wind Speed 6 mph (SE)    
Max Wind Speed 14 mph    
Max Gust Speed 18 mph    
Visibility 10 miles    
Events Rain , Thunderstorm    
Averages and records for this station are not official NWS values.
T = Trace of Precipitation, MM = Missing Value Source: NWS Daily Summary

Daily Weather History Graph

Daily Weather History Graph

Search for Another Location

Airport or City:

Astronomy

May. 08, 2019 Rise Set
Actual Time 6:16 AM CDT 7:49 PM CDT
Civil Twilight 5:50 AM CDT 8:15 PM CDT
Nautical Twilight 5:19 AM CDT 8:46 PM CDT
Astronomical Twilight 4:46 AM CDT 9:18 PM CDT
Moon 9:19 AM CDT (5/8) 11:43 PM CDT (5/8)
Length of Visible Light 14h 24m
Length of Day
13h 32m
Waxing Crescent, 16% of the Moon is Illuminated
May 8
Waxing Crescent
May 11
First Quarter
May 18
Full
May 26
Last Quarter
Jun 3
New

Hourly Weather History & Observations

Time (CDT) Temp. Heat Index Dew Point Humidity Pressure Visibility Wind Dir Wind Speed Gust Speed Precip Events Conditions
12:15 AM 71.6 °F - 66.2 °F 83% 29.95 in 10.0 mi SE 5.8 mph - N/A   Clear
12:36 AM 71.6 °F - 66.2 °F 83% 29.96 in 10.0 mi SE 6.9 mph - N/A   Clear
12:55 AM 71.6 °F - 66.2 °F 83% 29.95 in 10.0 mi SE 8.1 mph - N/A   Clear
1:38 AM 71.6 °F - 6.8 °F 8% 29.92 in 10.0 mi ESE 6.9 mph - N/A   Clear
2:16 AM 71.6 °F - 68.0 °F 88% 29.91 in 10.0 mi SE 4.6 mph - N/A   Clear
2:36 AM 71.6 °F - 68.0 °F 88% 29.90 in 10.0 mi SSE 3.5 mph - N/A   Clear
3:17 AM 69.8 °F - 68.0 °F 94% 29.90 in 10.0 mi Calm Calm - N/A   Clear
3:56 AM 69.8 °F - 68.0 °F 94% 29.89 in 10.0 mi ESE 4.6 mph - N/A   Clear
4:16 AM 69.8 °F - 68.0 °F 94% 29.89 in 10.0 mi Calm Calm - N/A   Clear
4:36 AM 69.8 °F - 68.0 °F 94% 29.88 in 10.0 mi ESE 3.5 mph - N/A   Clear
5:17 AM 69.8 °F - 68.0 °F 94% 29.88 in 10.0 mi ESE 5.8 mph - N/A   Clear
5:56 AM 69.8 °F - 69.8 °F 100% 29.88 in 10.0 mi ESE 4.6 mph - N/A   Mostly Cloudy
6:15 AM 69.8 °F - 69.8 °F 100% 29.88 in 10.0 mi ESE 5.8 mph - N/A   Overcast
6:58 AM 71.6 °F - 69.8 °F 94% 29.90 in 10.0 mi North - - N/A   Overcast
8:16 AM 71.6 °F - 69.8 °F 94% 29.91 in 10.0 mi ESE 9.2 mph - N/A Thunderstorm Mostly Cloudy
8:57 AM 73.4 °F - 71.6 °F 94% 29.91 in 10.0 mi SE 8.1 mph - N/A   Mostly Cloudy
9:15 AM 73.4 °F - 71.6 °F 94% 29.91 in 10.0 mi SSE 4.6 mph - N/A   Mostly Cloudy
9:37 AM 73.4 °F - 71.6 °F 94% 29.92 in 10.0 mi South 8.1 mph - N/A Rain Light Rain
9:55 AM 73.4 °F - 71.6 °F 94% 29.92 in 10.0 mi South 5.8 mph - N/A Rain Light Rain
10:17 AM 73.4 °F - 71.6 °F 94% 29.92 in 10.0 mi South 5.8 mph - N/A Rain Light Rain
10:36 AM 73.4 °F - 69.8 °F 88% 29.92 in 10.0 mi South 5.8 mph - N/A Thunderstorm Clear
10:56 AM 73.4 °F - 69.8 °F 88% 29.93 in 10.0 mi South 5.8 mph - N/A Rain Light Rain
11:15 AM 73.4 °F - 71.6 °F 94% 29.93 in 10.0 mi South 6.9 mph - N/A Rain Light Rain
11:36 AM 71.6 °F - 69.8 °F 94% 29.93 in 10.0 mi South 6.9 mph - 0.02 in Rain Rain
11:55 AM 71.6 °F - 69.8 °F 94% 29.93 in 7.0 mi South 8.1 mph - 0.07 in Rain Rain
1:16 PM 71.6 °F - 69.8 °F 94% 29.86 in 10.0 mi ESE 10.4 mph - 0.01 in Rain Light Rain
1:55 PM 73.4 °F - 71.6 °F 94% 29.86 in 10.0 mi SE 10.4 mph - 0.02 in   Mostly Cloudy
2:17 PM 77.0 °F - 69.8 °F 78% 29.86 in 10.0 mi SE 11.5 mph - N/A   Scattered Clouds
2:35 PM 78.8 °F - 71.6 °F 78% 29.86 in 10.0 mi SE 10.4 mph - N/A   Mostly Cloudy
2:55 PM 78.8 °F - 71.6 °F 78% 29.85 in 10.0 mi SE 10.4 mph 16.1 mph N/A   Mostly Cloudy
3:15 PM 80.6 °F 84.6 °F 71.6 °F 74% 29.85 in 10.0 mi SE 13.8 mph 18.4 mph N/A   Scattered Clouds
3:36 PM 80.6 °F 84.6 °F 71.6 °F 74% 29.83 in 10.0 mi North - - N/A   Scattered Clouds
4:15 PM 80.6 °F 84.6 °F 71.6 °F 74% 29.83 in 10.0 mi SE 11.5 mph 17.3 mph N/A   Overcast
4:55 PM 80.6 °F 85.4 °F 73.4 °F 79% 29.83 in 10.0 mi SE 6.9 mph 18.4 mph N/A   Mostly Cloudy
5:36 PM 80.6 °F 85.4 °F 73.4 °F 79% 29.82 in 10.0 mi SSE 9.2 mph - N/A Thunderstorm Mostly Cloudy
7:35 PM 77.0 °F - 73.4 °F 89% 29.83 in 10.0 mi ESE 3.5 mph - N/A   Mostly Cloudy
8:35 PM 77.0 °F - 73.4 °F 89% 29.83 in 10.0 mi SSE 8.1 mph - N/A   Clear
9:35 PM 77.0 °F - 71.6 °F 83% 29.85 in 10.0 mi SSE 8.1 mph - N/A   Overcast
9:55 PM 77.0 °F - 71.6 °F 83% 29.86 in 10.0 mi SSE 9.2 mph - N/A Thunderstorm Overcast